Regional Weather Roundup
Issued by NWS Grand Forks, ND

Home | Current Version | Previous Version | Graphics & Text | Print | Product List | Glossary On
Versions: 1 2 3 4 5 6 7 8 9 10 11 12 13 14 15 16 17 18 19 20 21 22 23 24 25 26 27 28 29 30 31 32 33 34 35 36 37 38 39 40 41 42 43 44 45 46 47 48 49 50
000
ASUS43 KFGF 212110
RWRFGF
PRAIRIE TO PINES  WEATHER ROUNDUP
NATIONAL WEATHER SERVICE EASTERN NORTH DAKOTA/GRAND FORKS ND
300 PM CST SUN DEC 21 2014

 **SATELLITE DATA USED TO AUGMENT SKY COVER AT AUTOMATED STATIONS**
 *****  WEATHER ACROSS EASTERN NORTH DAKOTA  *****

CITY           SKY/WX    TMP DP  RH WIND       PRES   REMARKS
GRAND FORKS    CLOUDY    32  30  92 S18       29.59F FOG     WCI  20
GRAND FRKS AFB CLOUDY    31  31 100 S16       29.59S WCI  20
GRAND FRKS NWS   N/A     32 N/A N/A S20         N/A  WCI  20
DEVILS LAKE    CLOUDY    30  25  80 SE12      29.49F WCI  21
FARGO          CLOUDY    34  30  85 SE13G25   29.59F FOG     WCI  25
WAHPETON ARPT  CLOUDY    32  30  93 SE15      29.61S WCI  22
$$

 ***** WEATHER ACROSS CENTRAL AND WESTERN NORTH DAKOTA  *****

CITY           SKY/WX    TMP DP  RH WIND       PRES   REMARKS
BISMARCK       SUNNY     38  29  70 SE8       29.43F
MINOT          CLOUDY    37  31  78 SE8       29.39F
JAMESTOWN      CLOUDY    32  30  92 SE13      29.51F FOG     WCI  22
MINOT AFB      CLOUDY    34  34 100 E9        29.39F
GARRISON         N/A     37  31  78 E7        29.39F
WILLISTON      CLOUDY    36  27  69 S6        29.33F
DICKINSON      CLOUDY    43  28  55 S10       29.33F
HETTINGER      CLOUDY    41  27  57 SW5       29.38F
$$

 *****  OTHER AIRPORT OBSERVATIONS IN OUR AREA  *****

CITY           SKY/WX    TMP DP  RH WIND       PRES   REMARKS
WALHALLA         N/A     28  28 100 S9        29.57S FOG     WCI  20
GRAFTON AIRPOR NOT AVBL
VALLEY CITY AR MIX PCPN  32  32 100 SE13      29.55R WCI  22
CANDO          CLOUDY    28  28 100 SE14G20   29.50F FOG     WCI  17
CAVALIER APRT  CLOUDY    30  30 100 S10       29.57F FOG     WCI  21
GWINNER        MOCLDY    37  36  93 SE16      29.55F
SHEYENNE NWR     N/A     33  29  86 SE12      29.95S WCI  24
ROLLA          FAIR      27  27 100 S9        29.48S WCI  17
 ***** THE ABOVE OBSERVATIONS ARE NON NWS ARE NOT QUALITY
       CONTROLLED AND MAY MIS-REPORT RAIN FOR SNOW...
$$

  *****  WEATHER ACROSS NORTHERN MINNESOTA  *****

CITY           SKY/WX    TMP DP  RH WIND       PRES   REMARKS
FLAG ISLAND    CLOUDY    30  28  93 S15       29.64S FOG     WCI  19
WARROAD        CLOUDY    30  28  93 S8        29.64F FOG     WCI  23
ROSEAU         CLOUDY    32  27  80 S10       29.63F HAZE    WCI  24
HALLOCK        CLOUDY    30  30 100 CALM      29.60F FOG
THF RVR FALLS  CLOUDY    30  28  93 S10       29.63R WCI  21
BAUDETTE       CLOUDY    31  28  89 S8        29.65F WCI  23
WASKISH        CLOUDY    32  30  93 CALM      29.66S
CROOKSTON      CLOUDY    32  30  93 S13       29.63S FOG     WCI  22
STEPHEN NDAWN    N/A     30  30 100 S14         N/A  WCI  20
GREENBUSH NDAW   N/A     30  30 100 S1          N/A
$$
  *****  WEATHER ACROSS CENTRAL AND WEST MINNESOTA  *****

CITY           SKY/WX    TMP DP  RH WIND       PRES   REMARKS
FOSSTON        CLOUDY    30  28  93 SE9       29.63S FOG     WCI  22
BEMIDJI        CLOUDY    31  30  95 S10       29.64F FOG     WCI  22
PARK RAPIDS    CLOUDY    33  31  92 S12       29.64S FOG     WCI  24
ELBOW LAKE     CLOUDY    32  32 100 SE16      29.61F FOG     WCI  21
WADENA         CLOUDY    32  30  93 S14       29.64F FOG     WCI  22
DETROIT LAKES  CLOUDY    32  32 100 S15       29.62F FOG     WCI  22
MOORHEAD       CLOUDY    34  34 100 SE14      29.61F FOG     WCI  24
FERGUS FALLS   CLOUDY    34  32  93 SE14      29.64F FOG     WCI  24
MORRIS MN      CLOUDY    34  34 100 S16       29.61F FOG     WCI  23
STAPLES        CLOUDY    32  32 100 SE6       29.66F FOG
$$
  *****  WEATHER ELSEWHERE ACROSS MINNESOTA  *****

CITY           SKY/WX    TMP DP  RH WIND       PRES   REMARKS
DULUTH         FOG       32  30  92 SE13      29.74F VSB 3/4 WCI  22
INTRNTL FALLS  CLOUDY    31  29  92 S3        29.69F
ELY            LGT SNOW  30  28  93 S7        29.74F WCI  23
CLOQUET        CLOUDY    32  30  93 SE5       29.74F FOG
WHEATON        CLOUDY    30  30 100 SE12      29.62S FOG     WCI  21
BRAINERD       CLOUDY    33  32  96 S7        29.68F FOG
HIBBING        CLOUDY    32  29  88 S8        29.72F FOG     WCI  25
ALEXANDRIA     CLOUDY    33  32  96 S16       29.63F FOG     WCI  23
SAINT CLOUD    FOG       36  34  92 SE8       29.70F VSB 3/4
MINNEAPOLIS    LGT RAIN  36  34  92 SE9       29.75F FOG
$$

  *****  WEATHER ACROSS SOUTH DAKOTA  *****

CITY           SKY/WX    TMP DP  RH WIND       PRES   REMARKS
SIOUX FALLS    CLOUDY    37  35  92 S16       29.60F FOG
BROOKINGS      NOT AVBL
WATERTOWN      CLOUDY    32  30  92 S16       29.53F FOG     WCI  21
HURON          MOSUNNY   35  31  85 SE12      29.50F
SISSETON         N/A     34  32  92 S14       29.56F WCI  25
ABERDEEN       CLOUDY    34  30  85 S16       29.52F WCI  24
MITCHELL       SUNNY     38  32  79 S20       29.52F
PIERRE         SUNNY     34  28  79 E10       29.41F
MOBRIDGE       SUNNY     41  29  62 SE9       29.41F
RAPID CITY     CLOUDY    48  27  44 N10       29.38S
$$

  *****  SOME WEATHER IN NEARBY STATES *****

CITY           SKY/WX    TMP DP  RH WIND       PRES   REMARKS
GLASGOW MT     LGT RAIN  33  30  88 E3        29.30S
GREAT FALLS MT CLOUDY    45  25  45 W24G30    29.44R
CHEYENNE WY    PTSUNNY   44  28  53 W25G40    29.51S
SCOTTSBLUFF NE CLOUDY    44  32  62 W16       29.45F
OMAHA NE       CLOUDY    42  39  89 S21       29.76F
DES MOINES IA  CLOUDY    42  36  79 S16G24    29.83F
DAVENPORT IA   CLOUDY    39  32  76 SE17      29.97F
CHICAGO IL     CLOUDY    36  28  73 S14       30.08F
EAU CLAIRE WI  CLOUDY    35  33  92 S12       29.82F FOG
LA CROSSE WI   CLOUDY    39  35  86 S13       29.87S
$$

  *****  SOME NATIONAL WEATHER *****

CITY           SKY/WX    TMP DP  RH WIND       PRES   REMARKS
LA GUARDIA NY  CLOUDY    36  28  73 N7        30.30R
RALEIGH NC     PTSUNNY   48  34  58 NE8       30.23F
ATLANTA GA     CLOUDY    49  44  83 E12       30.10F
NEW ORLEANS LA CLOUDY    58  51  78 NE5       30.02S
OKLAHOMA CITY  DRIZZLE   46  43  87 S12       29.78F FOG
ALBUQUERQUE NM PTSUNNY   48  27  44 N5        29.93F
SALT LAKE CITY CLOUDY    43  39  86 S15       29.92F
LOS ANGELES CA PTSUNNY   64  52  64 W3        30.08F
BOISE ID       LGT RAIN  45  42  89 NW12      29.98R FOG
SEATTLE WA     CLOUDY    53  47  79 SW13G20   29.96R
$$

*** WEATHER ACROSS MANITOBA...SASKATCHEWAN AND ONTARIO ***
                ***ONTARIO***

CITY           SKY/WX    TMP DP  RH WIND       PRES   REMARKS
GERALDTON      CLOUDY    32  28  86 S8        29.91S WCI  25
THUNDER BAY    CLOUDY    34  30  86 SE9       29.88S
SIOUX LOOKOUT  LGT SNOW  30  28  93 SE7       29.73S VSB 1   WCI  23
TORONTO        MOCLDY    34  23  64 S6        30.28R
BIG TROUT LK   CLOUDY    28  27  93 S10       29.78F WCI  19
PICKLE LAKE    LGT SNOW  28  27  93 SE9       29.76S WCI  20
DRYDEN         LGT SNOW  28  28 100 SE7       29.69F WCI  21
KENORA         CLOUDY    28  28 100 S10       29.64S WCI  19
$$
                *** MANITOBA***

CITY           SKY/WX    TMP DP  RH WIND       PRES   REMARKS
BRANDON        FOG       27  27 100 E8        29.49F VSB 1/8 WCI  18
DAUPHIN        CLOUDY    30  27  86 N6        29.52S WCI  24
ISLAND LAKE    DRIZZLE   28  28 100 SE7       29.66S WCI  21
PILOT MOUND      N/A     25  25 100 CALM        N/A
THE PAS        NOT AVBL
THOMPSON       NOT AVBL
WINNIPEG       NOT AVBL
LYNN LAKE      FLURRIES  12  12 100 E3        29.63R
GILLAM         FRZ DRZL  23  19  86 CALM      29.71S
$$
                ***SASKATCHEWAN***

CITY           SKY/WX    TMP DP  RH WIND       PRES   REMARKS
ESTEVAN        PTSUNNY   27  27 100 E10       29.34F WCI  17
KINDERSLEY     NOT AVBL
LLOYDMINSTER   NOT AVBL
PRINCE ALBERT  CLOUDY    23  23 100 E12       29.45S FOG     WCI  12
REGINA         MOSUNNY   25  25 100 SE13      29.34S WCI  13
YORKTON        CLOUDY    27  27 100 E10       29.44S WCI  17
N. BATTLEFORD  CLOUDY    21  19  93 E9        29.40R WCI  11
LA RONGE       NOT AVBL
SASKATOON      PTSUNNY   25  23  93 E12       29.38S WCI  14
SWIFT CURRENT  CLOUDY    36  30  80 SW8       29.23R
$$
NOTE: THESE ARE AUTOMATED STATIONS WITH LIMITED QUALITY CONTROL
      "FAIR" INDICATES FEW OR NO CLOUDS BELOW 12,000 FEET WITH NO
      SIGNIFICANT WEATHER AND/OR OBSTRUCTIONS TO VISIBILITY.
      SKY/WX - SKY CONDITION AND SIGNIFICANT WEATHER.
      TMP - AIR TEMPERATURE.    DP   - DEWPOINT TEMPERATURE.
      RH  - RELATIVE HUMIDITY.  PRES - PRESSURE.
      HX  - HEAT INDEX.         WCI  - WIND CHILL INDEX.
$


USA.gov is the U.S. government's official web portal to all federal, state and local government web resources and services.